Weather in Shar

Kazakhstan     49°35′05″N   81°02′49″E
temp.,
°C
wind,
m/s
gust,
m/s
humid.,
%
clouds,
%
prec.,
mm/h
press.,
hPa
HPBL,
m
30 june, thu
thu3000:00+19nw81258100 0.0 1001519
03:00+16nnw5854100 0.0 1003574
06:00+16n5548100 0.0 1004621
09:00+17n2146100 0.1 1004912
12:00+22nnw1238100 0.1 10021208
15:00+24nnw4335100 0.2 10011349
18:00+23n333864 0.3 1002833
21:00+20nne47460 0.0 1002121
1 july, fri
fri100:00+17ne22540 0.0 100319
03:00+15n36510 0.0 100499
06:00+15n3854100 0.0 1006233
09:00+20n563566 0.4 1006853
12:00+22nnw763319 0.8 10071752
15:00+23nnw77332 0.0 10071859
18:00+23nw672818 0.0 10082517
21:00+18n35355 0.0 100967
2 july, sat
sat200:00+15nne12390 0.0 101011
03:00+13se11450 0.0 101011
06:00+16se11413 0.0 101132
09:00+22sse11275 0.0 10101647
12:00+24nnw23236 0.0 10092502
15:00+26nnw342245 0.0 10082958
18:00+26nnw32235 0.0 10082534
21:00+20ene483626 0.0 1008153
3 july, sun
sun300:00+17ese3852100 0.1 1008166
03:00+15ese226294 0.6 100820
06:00+16sse235843 0.8 1008114
09:00+23ese55320 0.0 1007854
12:00+27sse222386 0.0 10052545
15:00+29wnw23205 0.0 10032701
18:00+29n431991 0.0 10022693
21:00+23ene7113396 0.0 1003329
4 july, mon
mon400:00+20e51242100 0.0 1001267
03:00+19ese2345100 0.0 100062
06:00+20ese5104250 0.0 998310
09:00+28sse1012235 0.0 9961147
12:00+33wsw101216100 0.0 9942299
15:00+32w111317100 0.0 9952449
18:00+30w71120100 0.0 9952326
21:00+25sw6936100 0.0 997573